TimeEST,TemperatureF,Dew PointF,Humidity,Sea Level PressureIn,VisibilityMPH,Wind Direction,Wind SpeedMPH,Gust SpeedMPH,PrecipitationIn,Events,Conditions,WindDirDegrees,DateUTC
12:25 AM,37.4,24.8,60,30.04,10.0,WSW,15.0,-,N/A,,Mostly Cloudy,240,2013-02-12 05:25:00
12:55 AM,35.4,25.5,67,30.05,10.0,WSW,12.7,-,N/A,,Mostly Cloudy,240,2013-02-12 05:55:00
1:55 AM,34.3,25.9,71,30.07,10.0,WSW,6.9,-,N/A,,Overcast,250,2013-02-12 06:55:00
2:55 AM,33.4,24.1,69,30.08,10.0,West,15.0,-,N/A,,Overcast,270,2013-02-12 07:55:00
3:55 AM,32.4,23.0,68,30.09,10.0,West,17.3,-,N/A,,Mostly Cloudy,260,2013-02-12 08:55:00
4:12 AM,32.0,23.0,69,30.09,10.0,West,15.0,-,N/A,,Mostly Cloudy,260,2013-02-12 09:12:00
4:55 AM,30.6,23.2,74,30.09,10.0,WSW,5.8,-,N/A,,Scattered Clouds,240,2013-02-12 09:55:00
5:55 AM,31.3,22.6,70,30.11,10.0,WSW,10.4,-,N/A,,Mostly Cloudy,240,2013-02-12 10:55:00
6:55 AM,30.9,22.3,70,30.12,10.0,West,6.9,-,N/A,,Scattered Clouds,270,2013-02-12 11:55:00
7:55 AM,29.8,22.3,73,30.14,10.0,WSW,5.8,-,N/A,,Mostly Cloudy,250,2013-02-12 12:55:00
8:55 AM,31.1,22.1,69,30.14,10.0,SW,6.9,-,N/A,,Mostly Cloudy,230,2013-02-12 13:55:00
9:44 AM,32.0,21.2,64,30.14,10.0,SW,6.9,-,N/A,,Scattered Clouds,220,2013-02-12 14:44:00
9:55 AM,32.5,22.1,65,30.15,10.0,WSW,9.2,-,N/A,,Scattered Clouds,240,2013-02-12 14:55:00
10:55 AM,34.2,22.3,62,30.12,10.0,Calm,Calm,-,N/A,,Partly Cloudy,0,2013-02-12 15:55:00
11:55 AM,37.8,22.6,54,30.13,10.0,Calm,Calm,-,N/A,,Partly Cloudy,0,2013-02-12 16:55:00
12:55 PM,40.1,21.9,48,30.05,10.0,Calm,Calm,-,N/A,,Clear,0,2013-02-12 17:55:00
1:55 PM,43.9,22.3,42,30.05,10.0,South,8.1,-,N/A,,Partly Cloudy,180,2013-02-12 18:55:00
2:55 PM,45.7,21.6,38,30.04,10.0,SW,11.5,-,N/A,,Scattered Clouds,220,2013-02-12 19:55:00
3:55 PM,47.5,20.8,35,30.02,10.0,SSW,13.8,-,N/A,,Scattered Clouds,200,2013-02-12 20:55:00
4:55 PM,46.6,20.8,36,30.02,10.0,SW,12.7,-,N/A,,Scattered Clouds,220,2013-02-12 21:55:00
5:55 PM,42.8,22.3,44,30.00,10.0,SW,5.8,-,N/A,,Scattered Clouds,230,2013-02-12 22:55:00
6:55 PM,37.9,21.6,52,29.98,10.0,SW,3.5,-,N/A,,Scattered Clouds,220,2013-02-12 23:55:00
7:55 PM,38.3,21.9,52,29.97,10.0,WSW,3.5,-,N/A,,Mostly Cloudy,240,2013-02-13 00:55:00
8:55 PM,38.8,23.5,54,29.97,10.0,West,3.5,-,N/A,,Mostly Cloudy,260,2013-02-13 01:55:00
9:55 PM,34.2,23.0,64,29.96,10.0,Calm,Calm,-,N/A,,Mostly Cloudy,0,2013-02-13 02:55:00
10:55 PM,34.0,24.8,69,29.96,10.0,NW,3.5,-,N/A,,Partly Cloudy,320,2013-02-13 03:55:00
11:55 PM,33.4,25.7,73,29.95,10.0,NNW,4.6,-,N/A,,Partly Cloudy,330,2013-02-13 04:55:00